User: anonymous   Login
Location: Aiyekoto
(8.4333°N, 4.3667°E)
Time: 12:39:59
(UTC+00:00)
Language:

Cosmos 2228 Rocket - Orbit

View from above orbital plane
View from above orbital plane
View from above satellite
View from above satellite

Ground track
Ground track

The orbit data is extracted from the following two-line orbital elements,

1 22287U 92094B   21163.10501140  .00000060  00000-0  51517-5 0  9990
2 22287  82.5232 162.5516 0023234 243.9118 115.9703 14.78183666533628
Epoch (UTC): 12 June 2021 02:31:12
Eccentricity: 0.0023234
inclination: 82.5232°
perigee height: 619 km
apogee height: 651 km
right ascension of ascending node: 162.5516°
argument of perigee: 243.9118°
revolutions per day: 14.78183666
mean anomaly at epoch: 115.9703°
orbit number at epoch: 53362

The dashed part of the orbit path shows where the satellite is in the earth's shadow,  

DLR